Atlanta Dekalb, GA

11:18 PM EST on November 20, 2019 (GMT -0500)
Dekalb-Peachtree

Weather History for KPDK - October, 2019

Change the Weather History Date:

Tuesday, October 15, 2019

  Actual Average Record
Temperature  
Mean Temperature 66 °F 62 °F  
Max Temperature 70 °F 73 °F 82 °F (1996)
Min Temperature 61 °F 51 °F 35 °F (2006)
Degree Days  
Heating Degree Days 0 4  
Month to date heating degree days 41  
Since 1 July heating degree days 51  
Cooling Degree Days 0 1  
Month to date cooling degree days 35  
Year to date cooling degree days 1739  
Growing Degree Days 16 (Base 50)    
Moisture  
Dew Point 60 °F    
Average Humidity 86    
Maximum Humidity 100    
Minimum Humidity 65    
Precipitation  
Precipitation 0.12 in 0.10 in 2.18 in (2002)
Month to date precipitation 1.83  
Year to date precipitation 42.97  
Snow  
Snow 0.00 in - - ()
Month to date snowfall  
Since 1 July snowfall  
Since 1 September snowfall  
Snow Depth -    
Sea Level Pressure  
Sea Level Pressure 30.02 in    
Wind  
Wind Speed 1 mph (East)    
Max Wind Speed 5 mph    
Max Gust Speed -    
Visibility 8 miles    
Events Rain    
T = Trace of Precipitation, MM = Missing Value Source: NWS Daily Summary

Daily Weather History Graph

Daily Weather History Graph

Search for Another Location

Airport or City:

Astronomy

Oct. 15, 2019 Rise Set
Actual Time 7:42 AM EDT 7:03 PM EDT
Civil Twilight 7:16 AM EDT 7:28 PM EDT
Nautical Twilight 6:47 AM EDT 7:57 PM EDT
Astronomical Twilight 6:18 AM EDT 8:26 PM EDT
Moon 8:26 PM EDT (10/15) 9:09 AM EDT (10/15)
Length of Visible Light 12h 11m
Length of Day
11h 21m
Full, 97% of the Moon is Illuminated
Oct 15
Full
Oct 21
Last Quarter
Oct 27
New
Nov 4
First Quarter
Nov 12
Full

Hourly Weather History & Observations

Time (EDT) Temp. Dew Point Humidity Pressure Visibility Wind Dir Wind Speed Gust Speed Precip Events Conditions
12:53 AM 61.0 °F 57.9 °F 90% 30.08 in 10.0 mi Calm Calm - N/A   Overcast
1:53 AM 62.1 °F 57.9 °F 86% 30.06 in 10.0 mi Calm Calm - N/A   Mostly Cloudy
2:53 AM 63.0 °F 57.9 °F 84% 30.08 in 10.0 mi Calm Calm - N/A   Overcast
3:53 AM 63.0 °F 57.9 °F 84% 30.06 in 10.0 mi Calm Calm - N/A   Overcast
4:53 AM 63.0 °F 59.0 °F 87% 30.07 in 3.0 mi Calm Calm - 0.03 in Rain Rain
5:53 AM 61.0 °F 59.0 °F 93% 30.08 in 10.0 mi Calm Calm - 0.02 in   Overcast
6:53 AM 62.1 °F 60.1 °F 93% 30.08 in 10.0 mi Calm Calm - N/A   Overcast
7:53 AM 62.1 °F 59.0 °F 90% 30.08 in 10.0 mi Calm Calm - N/A   Overcast
8:53 AM 63.0 °F 59.0 °F 87% 30.08 in 10.0 mi Calm Calm - N/A   Scattered Clouds
9:53 AM 64.0 °F 57.9 °F 80% 30.09 in 10.0 mi Calm Calm - N/A   Overcast
10:53 AM 64.9 °F 57.9 °F 78% 30.09 in 10.0 mi Calm Calm - 0.00 in   Overcast
11:53 AM 66.9 °F 57.0 °F 70% 30.07 in 10.0 mi ENE 3.5 mph - N/A   Overcast
12:53 PM 69.1 °F 57.9 °F 68% 30.06 in 10.0 mi NNE 3.5 mph - N/A   Overcast
1:53 PM 68.0 °F 57.9 °F 70% 30.05 in 10.0 mi SSE 3.5 mph - N/A   Overcast
2:53 PM 69.1 °F 59.0 °F 70% 30.02 in 10.0 mi Calm Calm - N/A   Overcast
3:53 PM 70.0 °F 57.9 °F 65% 29.99 in 10.0 mi Variable 3.5 mph - N/A   Mostly Cloudy
4:53 PM 68.0 °F 57.0 °F 68% 29.98 in 10.0 mi ESE 3.5 mph - N/A   Mostly Cloudy
5:19 PM 66.0 °F 59.0 °F 78% 30.00 in 10.0 mi East 3.5 mph - 0.01 in Rain Light Rain
5:53 PM 64.9 °F 60.1 °F 84% 29.99 in 7.0 mi Calm Calm - 0.01 in Rain Light Rain
6:53 PM 64.0 °F 62.1 °F 93% 29.98 in 6.0 mi East 3.5 mph - 0.04 in Rain Light Rain
7:53 PM 63.0 °F 62.1 °F 97% 29.94 in 9.0 mi Variable 3.5 mph - 0.02 in Rain Light Rain
8:10 PM 63.0 °F 62.1 °F 97% 29.96 in 8.0 mi Variable 3.5 mph - 0.00 in   Overcast
8:53 PM 63.0 °F 62.1 °F 97% 29.94 in 8.0 mi ENE 4.6 mph - 0.00 in   Overcast
9:53 PM 63.0 °F 62.1 °F 97% 29.95 in 7.0 mi Calm Calm - N/A   Overcast
10:23 PM 63.0 °F 63.0 °F 100% 29.95 in 4.0 mi Calm Calm - N/A   Overcast
10:33 PM 63.0 °F 63.0 °F 100% 29.95 in 5.0 mi Variable 4.6 mph - N/A   Overcast
10:53 PM 63.0 °F 63.0 °F 100% 29.93 in 5.0 mi Calm Calm - N/A   Overcast
11:53 PM 63.0 °F 62.1 °F 97% 29.93 in 7.0 mi Variable 3.5 mph - N/A   Overcast